Погода в Зиме

Погода в Зиме : погода сейчас, прогноз погоды и архив. Всё, что Вы хотите узнать о погоде в Зиме!

Поиск расширенной информации на нашем сайте:

Другие новости

Новости СМИ2

Главная страница сайта

Новости сайта

02.10.2013

Напоминаем, что на нашем новом сайте вы можете получить высокодетализированные прогнозы погоды по пунктам России, СНГ и мира (включающие важные для авиации метеовеличины, такие как направление и скорость ветра, видимость, явления погоды, количество и форма облачности, нижняя и верхняя граница облачности), а также ознакомиться с разнообразными материалами по авиационной метеорологии и подборкой полезных ссылок на эту тему.

Сайт Метеоцентр.Азия посвящён разработке технологий оптимизации авиаметеорологического обслуживания, включая проектирование и перспективное создание нескольких автоматизированных авиаметеорологических систем:
- система выпуска высокодетальных прогностических карт явлений погоды для нижнего воздушного пространства по России и ближнему зарубежью;
- система верификации прогнозов TAF (выпускаемых синоптиками официальных АМСГ РФ и ближнего зарубежья) и AUTOTAF (выпускаемых сайтом Метеоцентр.Азия) - выявление ошибок, онлайн-сопоставление с фактической погодой METAR, автоматическое внесение коррективов в прогнозы при резком отклонении фактической погоды от прогноза, подсчёт оправдываемости прогнозов по элементам и в целом;
- система обработки, анализа и отображения авиаметеорологической информации для применения провайдерами метеорологической информации.

Рекомендуем: Воздушная завеса Wing E150

Погода в Зиме - сегодня

Время (UTC), дата Ветер
(°,м/с) 
Видим.   Явления Облачность Т
(°С)
Тd
(°С)
f(%) Тe
(°С)
Pmin
(гПа)
dP
(гПа)
Po
(мм)
O2
(г/м3)
Тmin Tmax R s Состояние
почвы
18 24.04.17 340 (С) 20000 м    ясно 
-2 -10.4 53 -1  1025.7  -0.7  726  296           
21 24.04.17 310 (СЗ) н/о    ясно 
-2.3 -10.9 52 -2  1025.4  -0.3  726  296           
00 25.04.17 140 (ЮВ) 20000 м    ясно 
+5.3 -11.9 28 +6  1025.6  1.7  727  289  -3.5         
03 25.04.17 160 (Ю) 20000 м    ясно 
+11.4 -12.8 17 +11  1025.6  1.1  728  283           
06 25.04.17 120 (ЮВ) 20000 м    3/0 верхняя 
[Ci fib]
+16 -12.7 13 +17  1024.2  -0.5  728  278           
09 25.04.17 180 (Ю) 20000 м    4/0 верхняя 
[Ci fib]
+17.7 -14.2 10 +19  1023.4  -0.4  728  276           
12 25.04.17 110 (В) 20000 м    3/0 верхняя 
[Ci fib]
+14.1 -9.6 18 +15  1025.1  0.9  728  280    +18.1       
15 25.04.17 тихо ()   н/о    ясно 
+4.1 -6.7 45 +4  1028.7  1.6  729  290           
18 25.04.17 тихо ()   н/о    ясно 
-0.7 -7.4 60 -1  1030.8  730  296           
21 25.04.17 тихо ()   н/о    ясно 
-2.8 -8.1 67 -3  1031.9  0.6  731  298           
00 26.04.17 200 (Ю) 20000 м    10/0 верхняя 
[Ci fib]
+1.1 -6.7 56 +2  1032.1  731  294  -3.6         
03 26.04.17 150 (ЮВ) 20000 м    ясно 
+14.4 -7.6 21 +15  1029.2  -0.2  731  281           
06 26.04.17 300 (СЗ) 20000 м    4/0 верхняя 
[Ci fib]
+21.3 -9.2 12 +21  1025.4  -2.4  729  273           
09 26.04.17 310 (СЗ) 20000 м    6/0 верхняя 
[Ci fib]
+21.4 -8 13 +21  1023.4  -1.9  728  273           
12 26.04.17 300 (СЗ) 20000 м    3/0 верхняя 
[Ci fib]
+18.2 -6 19 +19  1022.8  -1  727  275    +21.9       
15 26.04.17 тихо ()   н/о    ясно 
+8.1 -2.2 48 +8  1024.8  727  285           
18 26.04.17 тихо ()   н/о    ясно 
+4.3 +0.7 77 +4  1025.3  -0.2  727  288           
21 26.04.17 тихо ()   н/о    ясно 
+2.1 -1.8 75 +2  1024.7  -1  726  291           
00 27.04.17 210 (ЮЗ) 20000 м    ясно 
+5.9 -2.1 56 +7  1023.4  -0.5  726  287  +1.8         
03 27.04.17 150 (ЮВ) 20000 м    ясно 
+17.1 -1.4 28 +19  1019.6  -1.5  725  275           
06 27.04.17 270 (З) 20000 м    ясно 
+24.5 -8.8 10 +25  1015.3  -3  723  268           
09 27.04.17 330 (СЗ) 20000 м    3/0 верхняя 
[Ci fib]
+25.5 -9.6 9 +26  1011.9  -3  720  266           
12 27.04.17 тихо ()   20000 м    3/0 верхняя 
[Ci fib]
+20.2 -7.2 15 +20  1011.2  -1.5  719  270    +25.8       
15 27.04.17 тихо ()   н/о    10/0 верхняя 
[Ci fib]
+10.6 -2.6 39 +11  1012.8  -0.2  719  279           
18 27.04.17 100 (В) н/о    6/0 верхняя 
[Ci fib]
+6.4 +1.8 72 +7  1013.5  719  283           
Время (UTC), дата Ветер
(°,м/с) 
Видим.   Явления Облачность Т
(°С)
Тd
(°С)
f(%) Тe
(°С)
Pmin
(гПа)
dP
(гПа)
Po
(мм)
O2
(г/м3)
Тmin Tmax R s Состояние
почвы

Для получения пояснительной информации подведите курсор к названию столбца.

ПОГОДА в Зиме - архив

Всё, что Вы хотите узнать о погоде в Зиме - удобно и подробно!

Выберите нужную дату (начиная с 1 января 2015* года) и нажмите кнопку "Найти".
Будут отображены архивные сводки погоды по пункту Зима, начиная с указанной даты.


Отображать данные в формате CSV (для использования в таблицах Excel)


Внимание! Наш архив погоды предназначен исключительно для личного некоммерческого использования в познавательных целях. Если Вам необходимы официальные справки о состоянии погоды (для производственных, юридических, коммерческих и т.п. целей), обращайтесь в органы Росгидромета.

*Примечание: данная дата относится к архиву по метеостанциям СССР (Россия, СНГ, Балтия).
Архив по метеостанциям Зарубежной Европы и Азии (кроме Китая) хранится 10 дней, по другим регионам земного шара (Китай, Африка, Америка, Австралия, Океания) - 1 день.

Зима - район местоположения метеостанции


Название, широта, долгота, высота метеостанции:
Зима 53.9°ш. 102.1°д. 458 м над ур. моря [Российская Федерация]

Дополнительная информация

В oтличие oт бoльшинства пoгoдных сайтoв мы публикуем пoдрoбную метеoинфoрмацию в детальнoм прoфессиoнальнoм фoрмате.

Характеристики температуры и влажнoсти вoздуха измеряются на высoте 2 м в тени вдали oт зданий и деревьев.
Скoрoсть ветра измеряется на высoте 10 м (на урoвне рoста челoвека скoрoсть ветра ниже в 1.5-2 раза). Если метеoстанция нахoдится в гoрoде или в лесу, тo скoрoсть ветра занижена на 2-4 м/с пo сравнению с oткрытым местoм. Скoрoсть ветра над акватoриями крупных рек и oзёр, а также на вершинах хoлмoв на 2-5 м/с выше, чем в oбычных услoвиях.
Атмoсфернoе давление в разных тoчках местнoсти мoжет значительнo oтличаться oт давления на метеoстанции, в зависимoсти oт услoвий рельефа (при пoдъёме на 10 м давление пoнижается примернo на 1 мм рт.ст.).